"Pseudo-MPEC" for C451RG1

Created 2025 Oct 4 6:35:11 UT using Find_Orb

Click here for an explanation of pseudo-MPECs

 
 Astrometry: 
     C451RG1*1C2025 10 03.19233600 01 53.267+02 15 50.87   ~A3D5 18.94GVNEOCP703
     C451RG1 1C2025 10 03.19469900 01 52.943+02 15 53.28   ~A3D5 19.18GVNEOCP703
     C451RG1 1C2025 10 03.19706500 01 52.633+02 15 53.10   ~A3D5 19.20GVNEOCP703
     C451RG1 1C2025 10 03.19943300 01 52.331+02 15 54.50   ~A3D5       VNEOCP703

Station data:
(703) Catalina Sky Survey  (N32.417029 W110.732640)  US/Arizona.  Observer E.
   J. Christensen. Measurers T. Beuden, V. F. Carvajal, D. Fay, J. B.
   Fazekas, D. C. Fuls, A. R. Gibbs, A. D. Grauer, H. Gröller, J. K. Hogan,
   R. A. Kowalski, S. M. Larson, G. J. Leonard, D. Rankin, R. L. Seaman, F.
   C. Shelly, K. W. Wierzchoś. 0.68 m Schmidt + 10K CCD.

Orbital elements:  C451RG1
   Perihelion 2026 Apr 11.762963 +/- 183 TT = 18:18:40.0 (JD 2461142.262963)
Epoch 2025 Oct  3.0 TT = JDT 2460951.5   Earth MOID: 0.3489      AutoNEOCP
M 279.216423046 +/- 70              (J2000 ecliptic)
n   0.423476212 +/- 0.271           Peri.  117.227254 +/- 80
a   1.756237998 +/- 0.749           Node     4.036766 +/- 24
e   0.30369138 +/- 0.263            Incl.   23.763416 +/- 27
P   2.327/850.091d         H 18.06  G  0.15   U 11.9  SR
q 1.222883655 +/- 0.641    Q 2.289592340 +/- 10.2
From 4 observations 2025 Oct. 3 (10.2 min); mean residual 0".38
Residuals in arcseconds: 
251003 703  .07+  .46-    251003 703  .08-  .38-    
251003 703  .11-  .88+    251003 703  .08+  .05-    

Ephemerides (geocentric):
Date (UTC) HH   RA             Dec           delta  r     elong  mag " sig PA
---- --------  ------------   ------------  ------ ------ -----  --- --------
2025 10 04 07  23 59 31.590   +02 24 15.27  .83288 1.8258 169.6 19.4  583  94
2025 10 04 08  23 59 26.237   +02 24 34.24  .83283 1.8256 169.6 19.4  608  94
2025 10 04 09  23 59 20.884   +02 24 53.22  .83277 1.8254 169.5 19.4  633  93
2025 10 04 10  23 59 15.532   +02 25 12.20  .83271 1.8253 169.5 19.4  659  93
2025 10 04 11  23 59 10.180   +02 25 31.19  .83266 1.8251 169.4 19.4  684  93
2025 10 04 12  23 59 04.829   +02 25 50.18  .83260 1.8250 169.3 19.4  710  93
2025 10 04 13  23 58 59.479   +02 26 09.17  .83255 1.8248 169.3 19.4  736  93
2025 10 04 14  23 58 54.129   +02 26 28.17  .83249 1.8247 169.2 19.4  762  93
2025 10 04 15  23 58 48.780   +02 26 47.18  .83244 1.8245 169.2 19.4  788  93
2025 10 04 16  23 58 43.431   +02 27 06.19  .83238 1.8244 169.1 19.4  814  92
2025 10 04 17  23 58 38.083   +02 27 25.21  .83233 1.8242 169.0 19.4  840  92
2025 10 04 18  23 58 32.735   +02 27 44.23  .83228 1.8240 169.0 19.4  866  92
2025 10 04 19  23 58 27.388   +02 28 03.26  .83223 1.8239 168.9 19.4  893  92
2025 10 04 20  23 58 22.042   +02 28 22.29  .83217 1.8237 168.8 19.4  920  92
2025 10 04 21  23 58 16.696   +02 28 41.33  .83212 1.8236 168.8 19.4  946  92
2025 10 04 22  23 58 11.351   +02 29 00.37  .83207 1.8234 168.7 19.4  973  92
2025 10 04 23  23 58 06.007   +02 29 19.42  .83202 1.8233 168.7 19.4 1000  92
2025 10 05 00  23 58 00.664   +02 29 38.47  .83197 1.8231 168.6 19.4 1028  92
2025 10 05 01  23 57 55.321   +02 29 57.53  .83192 1.8229 168.5 19.4 1055  92
2025 10 05 02  23 57 49.979   +02 30 16.59  .83188 1.8228 168.5 19.4 1083  91
2025 10 05 03  23 57 44.637   +02 30 35.66  .83183 1.8226 168.4 19.4 1110  91
2025 10 05 04  23 57 39.297   +02 30 54.73  .83178 1.8225 168.4 19.5 1138  91
2025 10 05 05  23 57 33.957   +02 31 13.81  .83173 1.8223 168.3 19.5 1166  91
2025 10 05 06  23 57 28.618   +02 31 32.89  .83168 1.8222 168.2 19.5 1194  91
2025 10 05 07  23 57 23.279   +02 31 51.98  .83164 1.8220 168.2 19.5 1223  91
2025 10 05 08  23 57 17.942   +02 32 11.07  .83159 1.8218 168.1 19.5 1251  91
2025 10 05 09  23 57 12.605   +02 32 30.17  .83155 1.8217 168.1 19.5 1280  91
2025 10 05 10  23 57 07.269   +02 32 49.27  .83150 1.8215 168.0 19.5 1308  91
2025 10 05 11  23 57 01.934   +02 33 08.38  .83146 1.8214 167.9 19.5 1337  91
2025 10 05 12  23 56 56.600   +02 33 27.49  .83141 1.8212 167.9 19.5 1367  91
2025 10 05 13  23 56 51.267   +02 33 46.61  .83137 1.8211 167.8 19.5 1396  91
2025 10 05 14  23 56 45.934   +02 34 05.73  .83133 1.8209 167.8 19.5 1426  91
2025 10 05 15  23 56 40.603   +02 34 24.86  .83128 1.8207 167.7 19.5 1455  91
2025 10 05 16  23 56 35.272   +02 34 43.99  .83124 1.8206 167.6 19.5 1485  91
2025 10 05 17  23 56 29.943   +02 35 03.13  .83120 1.8204 167.6 19.5 1515  91
2025 10 05 18  23 56 24.614   +02 35 22.27  .83116 1.8203 167.5 19.5 1545  91
2025 10 05 19  23 56 19.286   +02 35 41.42  .83112 1.8201 167.4 19.5 1576  91
2025 10 05 20  23 56 13.959   +02 36 00.57  .83108 1.8200 167.4 19.5 1607  91
2025 10 05 21  23 56 08.633   +02 36 19.73  .83104 1.8198 167.3 19.5 1638  91
2025 10 05 22  23 56 03.308   +02 36 38.89  .83100 1.8196 167.3 19.5 1669  91
2025 10 05 23  23 55 57.984   +02 36 58.06  .83096 1.8195 167.2 19.5 1700  91
2025 10 06 00  23 55 52.661   +02 37 17.23  .83092 1.8193 167.1 19.5 1732  90
2025 10 06 01  23 55 47.339   +02 37 36.41  .83089 1.8192 167.1 19.5 1763  90
2025 10 06 02  23 55 42.018   +02 37 55.59  .83085 1.8190 167.0 19.5 1795  90
2025 10 06 03  23 55 36.699   +02 38 14.77  .83081 1.8189 167.0 19.5 1828  90
2025 10 06 04  23 55 31.380   +02 38 33.97  .83077 1.8187 166.9 19.5 1860  90
2025 10 06 05  23 55 26.062   +02 38 53.16  .83074 1.8185 166.8 19.5 1893  90
2025 10 06 06  23 55 20.746   +02 39 12.36  .83070 1.8184 166.8 19.5 1926  90